Location: Fernhill
(41.0167°S, 175.6333°E)
Time: 11:18:32
(UTC+00:00)

YAOGAN 1 - Pass Details

Date: 08 November 2025
Orbit: 605 x 607 km, 97.8° (Epoch: 10 December)

Event Time Altitude Azimuth Distance (km) Brightness Sun altitude
Rises 07:37:09 0° 167° (SSE) 2,906 6.2 -6.1°
Reaches altitude 10° 07:39:21 10° 166° (SSE) 1,993 5.4 -6.4°
Maximum altitude 07:43:42 84° 78° (ENE) 626 2.5 -7.1°
Drops below altitude 10° 07:47:59 10° 349° (NNW) 1,966 5.0 -7.8°
Sets 07:50:09 0° 348° (NNW) 2,861 5.8 -8.2°
